Date,TemperatureHighF,TemperatureAvgF,TemperatureLowF,DewpointHighF,DewpointAvgF,DewpointLowF,HumidityHigh,HumidityAvg,HumidityLow,PressureMaxIn,PressureMinIn,WindSpeedMaxMPH,WindSpeedAvgMPH,GustSpeedMaxMPH,PrecipitationSumIn
2013-1-1,36.2,32.2,21.1,28.0,21.7,9.0,76,65,53,29.98,29.81,8,1,0,0.03
2013-1-2,27.1,19.7,9.5,18.0,12.6,6.0,88,75,61,30.15,29.97,2,0,0,0.00
2013-1-3,26.7,16.8,5.4,17.0,9.1,-1.0,86,72,60,30.20,30.05,5,0,0,0.00
2013-1-4,36.0,28.9,16.9,25.0,21.5,14.0,90,74,60,30.04,29.90,8,1,0,0.02
2013-1-5,39.3,30.6,21.4,26.0,22.0,19.0,91,71,54,30.25,29.95,7,1,0,0.03
2013-1-6,42.0,31.5,23.1,31.0,26.5,21.0,92,82,62,30.21,29.95,2,0,0,0.03
2013-1-7,38.5,30.5,20.4,31.0,24.4,18.0,95,79,57,30.39,30.02,7,1,0,0.00
2013-1-8,44.0,28.7,16.4,32.0,24.2,15.0,96,84,61,30.41,30.32,6,0,0,0.00
2013-1-9,41.6,30.6,19.1,35.0,27.8,18.0,97,89,76,30.38,30.11,5,0,0,0.00
2013-1-10,43.6,36.1,27.9,34.0,25.6,24.0,86,67,49,30.54,30.18,6,1,0,0.00
2013-1-11,36.9,31.7,24.2,36.0,28.9,22.0,100,89,72,30.54,30.13,2,0,0,0.01
2013-1-12,42.8,38.4,35.7,43.0,38.3,36.0,100,99,99,30.17,30.09,0,0,0,0.00
2013-1-13,45.1,40.4,35.8,45.0,40.4,36.0,100,100,100,30.14,29.99,1,0,0,0.00
2013-1-14,50.3,43.3,34.0,50.0,40.3,28.0,100,90,71,30.28,29.88,6,1,0,0.00
2013-1-15,35.8,33.1,30.9,30.0,26.7,25.0,92,78,68,30.34,30.21,5,0,0,0.00
2013-1-16,32.4,30.2,28.8,31.0,28.8,26.0,98,94,76,30.22,29.79,3,0,0,0.00
2013-1-19,41.3,39.1,36.2,31.0,29.8,28.0,76,69,61,30.06,29.89,1,0,0,0.07
2013-1-20,49.3,38.2,26.0,32.0,25.1,10.0,86,61,37,30.00,29.64,9,1,0,0.05
2013-1-21,27.7,24.2,19.1,22.0,14.7,7.0,92,68,49,30.07,29.79,4,0,0,0.00
2013-1-22,20.5,16.3,9.3,17.0,2.3,-7.0,92,55,42,30.16,29.79,13,1,0,0.00
2013-1-23,16.0,10.1,4.2,0.0,-2.5,-6.0,79,58,42,30.21,30.13,7,1,0,0.00
2013-1-24,19.0,10.0,1.0,2.0,-0.9,-2.0,87,64,41,30.34,30.14,9,1,0,0.00
2013-1-25,21.6,14.4,6.1,14.0,5.0,0.0,91,68,42,30.39,30.05,3,0,0,0.00
2013-1-26,23.2,16.6,8.8,14.0,7.6,3.0,89,69,51,30.34,30.03,8,1,0,0.00
2013-1-27,30.1,16.4,3.8,12.0,7.0,1.0,98,69,37,30.50,30.33,5,1,0,0.00
2013-1-28,31.3,24.9,14.4,31.0,22.2,10.0,100,89,77,30.49,29.99,3,0,0,0.01
2013-1-29,40.7,34.6,31.2,39.0,33.6,31.0,100,96,89,30.15,29.99,2,0,0,0.00
2013-1-30,54.6,44.9,34.7,54.0,44.8,34.0,100,99,95,30.09,29.35,7,1,0,0.00
2013-1-31,57.4,43.2,26.9,57.0,33.5,13.0,100,71,43,29.69,29.00,12,3,0,0.70
2013-2-1,28.4,24.9,20.6,15.0,10.4,5.0,67,55,42,30.17,29.69,7,1,0,0.00
2013-2-2,28.7,21.6,16.1,19.0,11.2,6.0,90,66,41,30.26,30.06,5,0,0,0.00
2013-2-3,27.9,20.8,13.2,19.0,15.8,11.0,93,81,63,30.05,29.77,6,0,0,0.04
2013-2-4,28.1,22.6,16.4,19.0,11.6,7.0,92,64,44,29.95,29.77,7,1,0,0.00
2013-2-5,28.1,24.2,18.9,24.0,20.4,13.0,92,86,76,29.99,29.91,1,0,0,0.01
2013-2-6,36.8,28.6,20.2,26.0,19.2,5.0,97,71,44,30.34,29.91,11,1,0,0.03
2013-2-7,29.5,22.9,14.7,16.0,9.4,3.0,80,58,41,30.51,30.33,3,0,0,0.00
2013-2-8,29.6,27.3,23.6,29.0,24.1,16.0,97,88,69,30.36,29.65,13,3,0,0.00
2013-2-9,25.6,22.6,15.7,22.0,14.2,5.0,96,72,44,30.31,29.73,15,5,0,0.05
2013-2-10,34.8,20.9,9.2,12.0,4.7,-2.0,77,52,26,30.47,30.31,6,1,0,0.10
2013-2-11,40.7,32.8,19.0,41.0,31.4,13.0,100,94,77,30.33,29.67,2,0,0,0.23
2013-2-12,41.6,37.6,34.4,38.0,29.1,25.0,99,72,60,29.93,29.68,7,1,0,0.01
2013-2-13,43.1,33.7,23.0,31.0,25.1,20.0,96,72,49,29.92,29.69,8,0,0,0.00
2013-2-14,42.1,32.3,23.5,31.0,26.9,22.0,98,82,53,29.98,29.70,4,0,0,0.06
2013-2-15,50.5,36.7,25.0,34.0,29.8,24.0,97,78,48,30.00,29.89,6,0,0,0.00
2013-2-16,38.0,30.9,26.9,33.0,23.6,15.0,96,76,60,29.96,29.72,8,1,0,0.04
2013-2-17,27.6,22.0,14.2,16.0,5.5,1.0,63,50,35,29.91,29.61,12,3,0,0.00
2013-2-18,31.7,21.6,13.5,14.0,6.9,2.0,73,54,38,30.20,29.91,8,1,0,0.00
2013-2-19,43.1,32.2,19.9,38.0,26.9,13.0,99,82,60,30.20,29.64,5,0,0,0.24
2013-2-20,35.5,28.2,22.4,30.0,15.9,11.0,80,60,50,29.92,29.65,9,2,0,0.00
2013-2-21,31.4,24.5,20.9,16.0,13.4,12.0,74,63,52,30.31,29.91,11,2,0,0.00
2013-2-22,36.6,28.5,20.0,28.0,21.1,14.0,92,75,59,30.41,30.28,6,1,0,0.00
2013-2-23,37.4,34.3,32.5,36.0,32.4,28.0,98,93,83,30.27,29.82,4,0,0,0.07
2013-2-24,40.9,35.1,30.6,36.0,32.6,27.0,98,91,78,29.94,29.73,10,1,0,0.04
2013-2-25,43.0,35.1,28.2,29.0,26.8,24.0,88,73,56,30.24,29.94,9,1,0,0.01
2013-2-26,41.5,32.9,24.4,31.0,27.4,23.0,96,81,60,30.30,29.98,7,1,0,0.05
2013-2-27,42.4,37.9,32.5,41.0,37.1,31.0,99,97,93,29.96,29.50,10,4,0,0.75
2013-2-28,46.2,37.4,31.3,40.0,34.4,31.0,100,90,65,29.61,29.53,4,0,0,0.03
2013-3-1,41.9,36.3,31.7,34.0,30.6,27.0,96,80,63,29.75,29.58,9,1,0,0.00
2013-3-2,36.2,32.9,28.1,27.0,25.5,23.0,83,74,66,29.75,29.67,7,1,0,0.00
2013-3-3,34.2,29.0,25.9,26.0,21.9,19.0,85,75,61,29.72,29.65,9,2,0,0.00
2013-3-4,39.9,31.0,25.6,24.0,20.8,18.0,78,67,52,29.87,29.71,7,2,0,0.00
2013-3-5,45.0,35.2,26.6,29.0,25.6,21.0,83,69,52,30.02,29.87,10,2,0,0.00
2013-3-6,39.8,36.4,34.0,37.0,31.1,28.0,94,81,71,30.00,29.90,9,4,0,0.02
2013-3-7,35.1,32.9,30.3,31.0,29.3,27.0,97,86,74,30.06,29.95,11,3,0,0.02
2013-3-8,37.9,32.4,28.2,31.0,28.4,26.0,97,86,66,30.19,29.98,14,2,0,0.12
2013-3-9,50.6,37.7,28.0,27.0,24.9,23.0,84,62,37,30.31,30.18,8,2,0,0.27
2013-3-10,51.6,35.9,20.8,34.0,28.8,19.0,97,78,48,30.38,30.28,5,0,0,0.00
2013-3-11,52.2,42.7,34.1,46.0,38.8,32.0,96,86,65,30.31,30.08,5,1,0,0.00
2013-3-12,53.3,49.5,39.6,53.0,48.3,37.0,100,95,88,30.08,29.65,6,2,0,0.99
2013-3-13,46.8,39.1,30.7,37.0,29.9,25.0,97,72,45,29.85,29.76,9,1,0,0.00
2013-3-14,33.2,30.0,25.0,28.0,15.0,9.0,83,54,38,29.90,29.82,8,2,0,0.00
2013-3-15,40.2,32.6,23.4,31.0,20.2,10.0,81,61,45,29.94,29.70,7,1,0,0.00
2013-3-16,35.9,31.6,27.8,29.0,23.4,17.0,93,73,51,29.89,29.75,4,0,0,0.02
2013-3-17,36.4,29.6,23.6,27.0,17.0,10.0,93,62,36,30.31,29.90,8,1,0,0.01
2013-3-18,34.0,26.8,18.5,27.0,15.0,8.0,95,63,41,30.41,30.07,7,1,0,0.00
2013-3-19,36.6,32.2,28.3,35.0,30.6,24.0,100,93,70,30.06,29.67,6,1,0,0.25
2013-3-20,40.4,32.7,24.9,23.0,20.7,18.0,82,63,42,29.84,29.77,10,1,0,0.12
2013-3-21,36.2,31.4,28.1,26.0,18.6,13.0,88,61,39,29.82,29.62,7,1,0,0.01
2013-3-22,37.3,30.6,22.0,24.0,19.3,14.0,80,64,49,29.84,29.68,6,1,0,0.00
2013-3-23,42.4,35.7,30.2,24.0,21.9,19.0,73,59,42,29.89,29.76,10,2,0,0.00
2013-3-24,42.8,34.3,23.7,27.0,23.1,19.0,88,65,50,29.93,29.72,11,1,0,0.00
2013-3-25,43.8,37.6,32.1,29.0,27.0,25.0,82,66,53,29.72,29.45,9,2,0,0.00
2013-3-26,46.3,38.9,29.7,31.0,28.0,24.0,83,66,48,29.84,29.57,7,1,0,0.00
2013-3-27,50.5,37.3,24.0,30.0,25.4,22.0,93,66,39,29.94,29.84,5,1,0,0.00
2013-3-28,46.0,38.8,30.1,35.0,30.9,26.0,87,74,61,30.08,29.93,7,1,0,0.00
2013-3-29,51.4,42.0,30.6,33.0,30.0,28.0,89,65,41,30.12,30.02,6,1,0,0.00
2013-3-30,54.6,41.3,28.6,34.0,26.4,21.0,93,61,29,30.14,30.04,6,1,0,0.00
2013-3-31,54.7,41.5,26.9,42.0,31.4,24.0,96,70,38,30.12,29.66,9,1,0,0.06
2013-4-1,58.6,44.4,33.6,46.0,36.3,15.0,99,76,41,29.87,29.58,10,1,0,0.04
2013-4-2,38.5,33.4,28.3,18.0,14.4,11.0,65,47,33,30.04,29.87,9,2,0,0.00
2013-4-3,43.7,34.8,29.0,17.0,14.4,11.0,60,44,29,30.27,30.03,11,2,0,0.00
2013-4-4,53.9,38.9,23.9,30.0,21.1,13.0,79,52,27,30.36,30.06,8,1,0,0.00
2013-4-5,59.4,45.4,35.8,31.0,25.3,19.0,79,49,23,30.05,29.69,8,2,0,0.00
2013-4-6,48.7,38.5,30.4,22.0,13.3,6.0,64,39,18,30.29,29.97,11,2,0,0.00
2013-4-7,55.1,45.0,30.1,43.0,34.2,20.0,92,68,44,30.29,29.99,9,2,0,0.00
2013-4-8,70.4,52.8,35.5,45.0,40.4,34.0,99,68,34,30.07,29.97,8,1,0,0.00
2013-4-9,75.5,62.0,47.8,54.0,45.8,41.0,96,60,31,29.98,29.89,11,1,0,0.00
2013-4-10,67.6,56.4,48.4,56.0,50.5,43.0,98,81,62,29.94,29.80,5,0,0,0.25
2013-4-11,57.1,50.9,45.0,55.0,45.6,38.0,100,83,66,30.06,29.79,5,1,0,0.00
2013-4-12,44.6,39.7,37.2,38.0,36.3,32.0,96,88,68,30.03,29.73,8,2,0,0.36
2013-4-13,53.7,45.0,36.3,40.0,36.6,34.0,96,74,54,29.94,29.75,7,0,0,0.05
2013-4-14,51.7,45.3,36.4,38.0,31.6,27.0,84,61,40,30.20,29.93,11,1,0,0.00
2013-4-15,59.8,45.5,32.6,37.0,32.5,29.0,90,63,40,30.37,30.21,8,1,0,0.00
2013-4-16,65.7,51.8,38.9,53.0,45.7,32.0,96,80,62,30.36,30.10,6,1,0,0.02
2013-4-17,65.4,55.1,44.7,53.0,40.7,35.0,97,63,34,30.29,30.10,9,2,0,0.00
2013-4-18,60.6,51.1,40.9,50.0,40.5,33.0,92,69,42,30.34,30.10,7,1,0,0.00
2013-4-19,72.5,62.2,52.4,64.0,59.1,50.0,100,90,71,30.09,29.63,9,1,0,0.08
2013-4-20,61.3,49.9,41.8,61.0,36.4,25.0,97,64,36,30.27,29.63,8,2,0,0.27
2013-4-21,51.0,41.0,30.7,28.0,23.6,20.0,74,52,33,30.61,30.28,11,2,0,0.00
2013-4-22,55.6,43.4,31.5,36.0,31.1,26.0,93,65,37,30.67,30.50,6,1,0,0.00
2013-4-23,48.0,41.3,35.4,41.0,36.1,30.0,92,82,75,30.50,30.10,5,1,0,0.00
2013-4-24,72.3,53.4,37.6,52.0,44.9,36.0,96,75,47,30.10,29.80,10,1,0,0.00
2013-4-25,61.8,52.5,41.6,51.0,33.5,25.0,95,52,26,30.25,29.83,9,2,0,0.00
2013-4-26,62.9,49.4,32.5,37.0,32.9,30.0,93,57,32,30.40,30.25,7,1,0,0.00
2013-4-27,67.5,52.8,34.1,35.0,31.1,25.0,86,48,21,30.41,30.25,6,1,0,0.00
2013-4-28,71.2,54.4,37.9,47.0,37.8,31.0,90,57,36,30.30,30.18,6,1,0,0.00
2013-4-29,56.8,53.5,49.3,48.0,43.7,37.0,85,70,55,30.23,30.18,8,1,0,0.00
2013-4-30,68.6,56.7,46.5,45.0,37.0,28.0,87,53,22,30.32,30.20,6,0,0,0.00
2013-5-1,70.7,54.5,35.6,44.0,37.3,28.0,90,57,28,30.47,30.32,5,1,0,0.00
2013-5-2,79.6,59.3,39.1,47.0,42.5,37.0,96,60,26,30.46,30.27,4,0,0,0.00
2013-5-3,68.8,57.5,47.6,45.0,39.7,35.0,81,53,32,30.44,30.31,6,1,0,0.00
2013-5-4,72.9,55.4,40.2,47.0,43.4,39.0,98,68,34,30.36,30.19,5,1,0,0.00
2013-5-5,69.8,52.3,41.1,46.0,40.8,38.0,94,69,33,30.28,30.18,5,1,0,0.00
2013-5-6,72.3,55.2,39.4,53.0,47.1,38.0,96,77,50,30.25,30.12,7,0,0,0.00
2013-5-7,76.8,60.5,44.1,58.0,52.1,43.0,99,77,46,30.16,30.06,3,0,0,0.00
2013-5-8,63.3,59.6,54.7,63.0,58.5,54.0,100,96,90,30.11,29.97,7,0,0,0.62
2013-5-9,63.1,56.9,50.9,60.0,55.5,50.0,100,95,77,30.00,29.86,2,0,0,0.07
2013-5-10,78.6,63.2,48.0,62.0,55.1,48.0,100,78,45,29.98,29.87,6,0,0,0.00
2013-5-11,65.8,61.6,58.0,64.0,60.8,57.0,100,97,86,29.88,29.67,3,0,0,0.30
2013-5-12,66.1,58.4,47.5,60.0,46.6,29.0,100,70,30,29.87,29.62,3,0,0,0.00
2013-5-13,54.2,46.1,36.1,35.0,32.4,27.0,90,61,37,30.08,29.87,6,1,0,0.00
2013-5-14,58.2,45.0,31.7,37.0,32.1,26.0,97,66,30,30.11,30.00,6,0,0,0.00
2013-5-15,64.6,49.3,33.3,55.0,44.1,32.0,97,83,57,30.07,29.67,6,0,0,0.04
2013-5-16,82.1,63.5,44.2,55.0,47.1,43.0,100,63,27,29.80,29.68,5,0,0,0.00
2013-5-17,68.7,57.9,49.1,49.0,44.2,41.0,87,62,40,30.19,29.81,7,1,0,0.00
2013-5-18,69.7,55.4,42.3,53.0,47.7,41.0,97,77,48,30.29,30.20,5,0,0,0.00
2013-5-19,56.3,55.1,53.6,56.0,54.4,51.0,100,97,88,30.31,30.17,2,0,0,0.20
2013-5-20,80.4,65.4,55.3,70.0,62.1,55.0,100,90,64,30.16,29.93,5,0,0,0.00
2013-5-21,87.7,72.5,59.7,74.0,67.1,59.0,100,85,59,29.96,29.79,6,0,0,0.00
2013-5-22,80.7,67.3,57.5,73.0,64.6,57.0,97,91,74,29.90,29.80,5,0,0,0.01
2013-5-23,73.8,66.7,63.6,71.0,66.4,63.0,100,99,90,29.86,29.73,2,0,0,1.90
2013-5-24,64.3,54.7,42.4,64.0,53.9,42.0,100,97,86,29.90,29.63,7,0,0,0.28
2013-5-25,47.4,43.6,41.4,45.0,42.3,41.0,99,95,86,29.93,29.83,10,1,0,0.94
2013-11-26,37.7,34.2,32.3,37.0,31.1,24.0,98,89,61,30.23,29.86,5,1,0,0.32
2013-11-27,58.4,43.8,32.4,58.0,42.8,25.0,100,96,73,29.83,29.31,10,2,0,2.48
2013-11-28,32.2,27.1,21.5,23.0,16.2,11.0,85,64,48,30.45,29.65,7,2,0,0.01
2013-11-29,32.4,25.8,20.0,22.0,19.6,17.0,90,78,59,30.72,30.45,4,0,0,0.00
2013-11-30,31.5,23.9,14.2,24.0,15.9,11.0,93,73,43,30.77,30.38,2,0,0,0.00
2013-12-1,45.9,35.2,29.3,37.0,30.0,24.0,93,82,70,30.38,30.00,3,0,0,0.00
2013-12-2,41.5,32.0,26.8,35.0,29.9,26.0,97,92,76,30.00,29.89,0,0,0,0.00
2013-12-3,45.5,32.3,25.3,40.0,30.1,25.0,100,92,74,30.00,29.87,1,0,0,0.00
2013-12-4,49.3,34.9,24.7,39.0,31.6,24.0,98,88,66,30.15,30.00,4,0,0,0.00
2013-12-5,53.3,47.9,38.2,53.0,47.5,36.0,100,98,91,30.15,29.93,2,0,0,0.02
2013-12-6,53.5,42.4,32.6,54.0,41.0,31.0,100,95,85,30.13,29.86,7,1,0,0.35
2013-12-7,36.4,31.3,24.8,31.0,28.6,22.0,96,89,74,30.50,30.08,6,0,0,0.22
2013-12-8,28.7,25.4,18.6,24.0,20.9,17.0,94,83,75,30.59,30.41,3,0,0,0.00
2013-12-9,33.6,30.2,25.8,33.0,29.5,24.0,99,97,92,30.40,29.94,5,1,0,0.01
2013-12-10,32.6,29.0,21.2,31.0,27.5,18.0,99,94,85,30.06,29.82,2,0,0,0.00
2013-12-11,29.0,23.8,18.5,20.0,17.5,15.0,86,77,65,30.26,30.07,7,0,0,0.00
2013-12-12,23.4,18.3,9.9,16.0,10.4,7.0,89,72,54,30.32,30.12,5,0,0,0.00
2013-12-13,31.0,23.4,15.4,19.0,13.8,8.0,80,67,57,30.34,30.06,9,1,0,0.00
2013-12-14,20.7,17.4,13.7,18.0,13.8,11.0,93,86,67,30.52,29.90,9,1,0,0.00
2013-12-15,34.3,28.1,19.9,31.0,25.2,18.0,96,89,72,29.87,29.51,7,2,0,0.00
2013-12-16,28.2,21.6,7.2,22.0,11.6,4.0,87,66,50,30.21,29.77,9,2,0,0.00
2013-12-17,19.6,13.5,2.6,19.0,11.2,0.0,100,90,86,30.22,29.94,1,0,0,0.00
2013-12-18,32.7,23.4,12.8,23.0,18.3,11.0,93,81,63,30.13,29.93,11,1,0,0.00
2013-12-19,42.5,30.1,18.0,30.0,23.8,16.0,92,78,55,30.15,30.00,4,0,0,0.02
2013-12-20,47.4,36.8,28.4,35.0,31.0,27.0,93,80,61,30.09,29.94,4,0,0,0.52
2013-12-21,55.4,42.3,31.9,46.0,39.2,30.0,99,89,71,29.98,29.87,4,0,0,0.06
2013-12-22,64.7,57.3,43.3,61.0,55.4,43.0,100,94,80,29.94,29.75,6,1,0,0.01
2013-12-23,56.2,48.9,35.2,56.0,48.2,31.0,100,97,86,30.11,29.87,8,0,0,0.36
2013-12-24,34.9,29.7,21.8,31.0,23.5,12.0,92,78,62,30.29,30.07,6,1,0,0.11
2013-12-25,23.5,18.8,13.1,16.0,9.4,5.0,82,67,52,30.50,30.30,7,1,0,0.00
2013-12-26,31.1,25.1,20.3,26.0,21.4,14.0,94,85,75,30.42,30.13,2,0,0,0.00
2013-12-27,35.6,28.4,18.0,25.0,21.3,16.0,96,76,57,30.32,30.23,6,0,0,0.02
2013-12-28,47.2,33.6,22.3,30.0,26.1,20.0,93,76,51,30.25,30.04,4,0,0,0.06
2013-12-29,39.0,34.4,29.3,39.0,32.6,26.0,99,93,82,30.04,29.44,6,1,0,0.87
2013-12-30,39.7,30.5,15.5,35.0,25.0,10.0,98,81,62,30.18,29.65,7,1,0,0.00
2013-12-31,27.3,20.3,13.2,22.0,13.0,9.0,85,74,57,30.24,30.04,5,1,0,0.00
2014-1-1,28.3,23.0,16.9,20.0,14.3,10.0,84,70,57,30.39,30.24,9,0,0,0.01
2014-1-2,24.5,19.1,10.8,21.0,16.1,8.0,91,88,84,30.27,29.72,8,2,0,0.00